Preview of NWS' New Version of Forecast
This preview is not operational and should not be used for support decisions.

Regional Weather Roundup (RWR)

Issued by Gray - Portland, ME (GYX)

                            
000
ASUS41 KGYX 251610
RWRGYX
WEATHER ROUNDUP FOR MAINE AND NEW HAMPSHIRE
NATIONAL WEATHER SERVICE GRAY ME
1200 PM EDT SUN AUG 25 2019

MEZ002-005-006-010-012-015-018-020-021-024-026-027-029-251700-
MAINE
  
CITY           SKY/WX    TMP DP  RH WIND       PRES   REMARKS
PORTLAND       FAIR      67  49  52 E12       30.39F                  
SANFORD        FAIR      67  51  56 E10G17    30.38F                  
BAR HARBOR     FAIR      65  51  60 VRB5      30.40F                  
WISCASSET      FAIR      68  49  50 VRB5      30.40F                  
ROCKLAND       FAIR      63  52  67 VRB7G16   30.39F                  
FRYEBURG       FAIR      70  43  37 NE8G17    30.39F                  
LEWISTONAUBURN FAIR      67  49  52 NE6       30.40F                  
AUGUSTA        FAIR      67  48  50 E7        30.41F                  
WATERVILLE     FAIR      66  46  48 NE7       30.38F                  
BANGOR         FAIR      69  46  43 N7        30.41F                  
GREENVILLE       N/A     66  42  41 E5        30.40F                  
MILLINOCKET    FAIR      69  44  40 VRB3      30.42F                  
HOULTON        FAIR      69  46  43 E6        30.40F                  
PRESQUE ISLE   FAIR      71  52  50 E3        30.41F                  
FRENCHVILLE    FAIR      68  46  45 VRB5      30.40F                  
CARIBOU        FAIR      69  50  50 CALM      30.39F                  
$$

NHZ002-005-008-009-011-012-014-251700-
NEW HAMPSHIRE
  
CITY           SKY/WX    TMP DP  RH WIND       PRES   REMARKS
ROCHESTER      FAIR      68  50  52 E9        30.36F                  
NASHUA         PTSUNNY   69  50  50 E15G22    30.36F                  
MANCHESTER     PTSUNNY   71  49  45 NE12      30.35F                  
CONCORD        FAIR      69  48  47 NE12      30.36F                  
LACONIA        FAIR      67  48  50 E10       30.37F                  
PLYMOUTH       FAIR      71  45  40 SE6       30.36F                  
BERLIN         NOT AVBL                                               
WHITEFIELD     FAIR      70  42  36 E8        30.38F                  
JAFFREY        FAIR      66  47  50 VRB6      30.37F                  
KEENE          FAIR      68  50  52 E9        30.36S                  
LEBANON        FAIR      72  47  40 VRB7      30.35F                  
MT WASHINGTON  PTSUNNY   43  32  65 E12G18      N/A                   
$$

VTZ005-007-008-251700-
VERMONT
  
CITY           SKY/WX    TMP DP  RH WIND       PRES   REMARKS
ST JOHNSBURY     N/A     69  48  47 MISG      30.35F                  
MONTPELIER     FAIR      67  54  63 VRB3      30.41F                  
BURLINGTON     FAIR      73  52  47 CALM      30.36F                  
$$

MAZ007-012-024-CTZ003-RIZ002-NYZ038-NYZ072-251700-
SOUTHERN NEW ENGLAND AND NY
  
CITY           SKY/WX    TMP DP  RH WIND       PRES   REMARKS
BOSTON         PTSUNNY   68  56  65 NE20      30.34S                  
WORCESTER      PTSUNNY   64  51  62 NE8G20    30.34F                  
NANTUCKET      PTSUNNY   70  61  73 NE23G31   30.27R                  
PROVIDENCE     PTSUNNY   68  61  78 NE17      30.32S                  
HARTFORD       FAIR      73  50  44 NE15      30.30F                  
ALBANY         PTSUNNY   73  55  53 NE10      30.33F                  
NEW YORK CITY  FAIR      73  55  53 NE20      30.26F                  
$$

ANZ081-ANZ082-ANZ150-NHZ014-MEZ023>029-251700-
COASTAL MARINE OBSERVATIONS
  
STATION/POSITION TIME  TEMP    WIND        PRES    WAVE
                       AIR SEA DIR/SP/G            HT/PER
                 (UTC) (F)     (DEG/KT/KT) (MB)    (FT/S)
MATINICUS ROCK   1550   57                 1028.5F
ISLE OF SHOALS   1500   61      40/ 19/ 22 1027.5S
JEFFREYS LEDGE   1538      67                N/A     5/ 6
CASHES LEDGE BUO 1550   58 63   40/ 19/ 23 1028.0F   4/ 6
GEORGES BANK BUO 1550   68 65   60/ 17/ 23 1023.5R   7/ 8
$$

.............KEY..............
   WCI - WIND CHILL
   TC  - TEMPERATURE IN CELSIUS
   VSB - VISIBILITY IN MILES
   HX  - HEAT INDEX
   FAIR- INDICATES FEW OR NO CLOUDS BELOW 12,000 FT, WITH NO 
         SIGNIFICANT WEATHER AND/OR OBSTRUCTIONS TO VISIBILITY.